Location: Bednik
(45.3500°N, 16.3833°E)
Time: 06:34:14
(UTC+00:00)

CZ-2C R/B - Pass Details

Date: 08 August 2020
Orbit: 785 x 870 km, 98.3° (Epoch: 23 September)

Event Time Altitude Azimuth Distance (km) Brightness Sun altitude
Rises 18:36:23 0° 16° (NNE) 3,288 5.9 -4.7°
Reaches altitude 10° 18:38:44 10° 19° (NNE) 2,354 5.2 -5.1°
Maximum altitude 18:43:53 64° 101° (E) 874 2.6 -5.8°
Drops below altitude 10° 18:49:02 10° 183° (S) 2,355 4.8 -6.6°
Sets 18:51:23 0° 186° (S) 3,289 5.5 -7.0°
